GW3550 Weather Reports


Display with metric or nautical units.
time (UTC)temp
F
wind
direction
speed
MPH
gust
MPH
rain 1hr
in
rain 24hr
in
rain mn
in
humidity
%
barometer
mb
20260905204902 95 32 1.0 2.0 0.00 0.00 0.00 51 1014.0
20260905204358 95 40 2.0 4.0 0.00 0.00 0.00 53 1014.2
20260905203851 96 0 4.0 7.0 0.00 0.00 0.00 52 1013.8
20260905203347 96 32 3.0 7.0 0.00 0.00 0.00 53 1014.1
20260905202842 98 157 2.0 7.0 0.00 0.00 0.00 53 1014.3
20260905202336 99 44 1.0 2.0 0.00 0.00 0.00 48 1014.4
20260905201832 96 237 1.0 2.0 0.00 0.00 0.00 51 1014.3
20260905201328 96 242 0.0 7.0 0.00 0.00 0.00 51 1014.5
20260905200828 97 51 3.0 3.0 0.00 0.00 0.00 49 1014.6
20260905200325 99 5 0.0 2.0 0.00 0.00 0.00 47 1014.5
20260905195821 100 188 0.0 1.0 0.00 0.00 0.00 48 1014.6
20260905195317 97 188 0.0 1.0 0.00 0.00 0.00 51 1014.6
20260905194813 96 187 0.0 1.0 0.00 0.00 0.00 49 1014.5
20260905194312 96 186 0.0 0.0 0.00 0.00 0.00 49 1014.5
20260905193812 96 76 1.0 3.0 0.00 0.00 0.00 49 1014.4
20260905193307 98 193 0.0 1.0 0.00 0.00 0.00 47 1014.7
20260905192802 97 70 2.0 4.0 0.00 0.00 0.00 47 1014.9
20260905192258 100 13 1.0 3.0 0.00 0.00 0.00 45 1014.7
20260905191757 100 232 2.0 3.0 0.00 0.00 0.00 45 1014.8
20260905191256 97 17 2.0 4.0 0.00 0.00 0.00 46 1014.9
20260905190755 98 72 2.0 4.0 0.00 0.00 0.00 46 1014.9
20260905190254 98 233 0.0 3.0 0.00 0.00 0.00 48 1015.0
20260905185747 98 241 1.0 3.0 0.00 0.00 0.00 46 1015.3
20260905185243 96 242 0.0 3.0 0.00 0.00 0.00 49 1015.2
20260905184737 96 358 0.0 3.0 0.00 0.00 0.00 48 1015.4
20260905184236 98 19 1.0 2.0 0.00 0.00 0.00 49 1015.1
20260905183735 99 245 2.0 4.0 0.00 0.00 0.00 47 1015.4
20260905183230 99 232 0.0 2.0 0.00 0.00 0.00 48 1015.5
20260905182724 98 205 0.0 1.0 0.00 0.00 0.00 48 1015.3
20260905182218 98 78 0.0 2.0 0.00 0.00 0.00 51 1015.3
20260905181714 96 57 0.0 1.0 0.00 0.00 0.00 55 1015.4
20260905181212 97 221 2.0 4.0 0.00 0.00 0.00 50 1015.6
20260905180707 96 154 0.0 1.0 0.00 0.00 0.00 50 1015.7
20260905180203 94 211 0.0 3.0 0.00 0.00 0.00 54 1015.8
20260905175701 94 37 4.0 6.0 0.00 0.00 0.00 53 1015.8
20260905175157 96 219 0.0 2.0 0.00 0.00 0.00 51 1015.7
20260905174653 98 231 0.0 0.0 0.00 0.00 0.00 53 1015.8
20260905174148 98 230 1.0 2.0 0.00 0.00 0.00 48 1015.9
20260905173644 95 75 1.0 4.0 0.00 0.00 0.00 51 1016.2
20260905173139 97 245 0.0 2.0 0.00 0.00 0.00 47 1016.2
20260905172638 97 33 4.0 6.0 0.00 0.00 0.00 47 1016.2
20260905172133 95 247 0.0 3.0 0.00 0.00 0.00 52 1016.2
20260905171629 96 59 3.0 4.0 0.00 0.00 0.00 52 1016.3
20260905171125 97 242 2.0 4.0 0.00 0.00 0.00 53 1016.5
20260905170621 96 218 1.0 1.0 0.00 0.00 0.00 53 1016.3
20260905170117 94 205 1.0 2.0 0.00 0.00 0.00 54 1016.5
20260905165617 97 323 4.0 6.0 0.00 0.00 0.00 52 1016.5
20260905165107 96 209 0.0 2.0 0.00 0.00 0.00 55 1016.7
20260905164602 95 345 1.0 4.0 0.00 0.00 0.00 57 1016.6
20260905164101 95 190 0.0 3.0 0.00 0.00 0.00 60 1016.9
20260905163558 94 232 1.0 2.0 0.00 0.00 0.00 57 1016.9
20260905163054 95 253 2.0 3.0 0.00 0.00 0.00 57 1016.8
20260905162550 94 343 1.0 1.0 0.00 0.00 0.00 57 1016.9
20260905162043 95 234 3.0 3.0 0.00 0.00 0.00 55 1016.9
20260905161544 94 319 0.0 4.0 0.00 0.00 0.00 58 1017.3
20260905161041 93 260 0.0 3.0 0.00 0.00 0.00 59 1017.3
20260905160540 95 53 3.0 3.0 0.00 0.00 0.00 56 1017.4
20260905160035 93 251 0.0 2.0 0.00 0.00 0.00 58 1017.4
20260905155534 93 162 0.0 2.0 0.00 0.00 0.00 58 1017.0
20260905155033 93 23 3.0 4.0 0.00 0.00 0.00 60 1017.4
20260905154528 94 30 0.0 3.0 0.00 0.00 0.00 57 1017.5
20260905154024 93 321 1.0 3.0 0.00 0.00 0.00 57 1017.5
20260905153519 93 237 0.0 2.0 0.00 0.00 0.00 57 1017.6
20260905153019 92 268 0.0 1.0 0.00 0.00 0.00 61 1017.5
20260905152513 92 242 0.0 2.0 0.00 0.00 0.00 62 1017.7
20260905152008 93 254 2.0 4.0 0.00 0.00 0.00 61 1017.6
20260905151503 93 49 2.0 2.0 0.00 0.00 0.00 59 1017.8
20260905150958 93 193 0.0 1.0 0.00 0.00 0.00 61 1017.8
20260905150453 91 233 2.0 2.0 0.00 0.00 0.00 63 1017.8
20260905145950 92 237 1.0 2.0 0.00 0.00 0.00 61 1018.0
20260905145445 91 225 2.0 2.0 0.00 0.00 0.00 65 1017.8
20260905144944 90 244 0.0 4.0 0.00 0.00 0.00 65 1017.8
20260905144440 89 233 0.0 2.0 0.00 0.00 0.00 66 1017.8
20260905143939 89 278 6.0 7.0 0.00 0.00 0.00 64 1017.7
20260905143432 89 235 5.0 7.0 0.00 0.00 0.00 66 1017.9
20260905142927 88 243 1.0 2.0 0.00 0.00 0.00 66 1017.9
20260905142426 87 241 2.0 4.0 0.00 0.00 0.00 67 1017.9
20260905141922 88 270 2.0 6.0 0.00 0.00 0.00 67 1018.1
20260905141416 88 229 3.0 3.0 0.00 0.00 0.00 69 1018.1
20260905140913 87 232 1.0 4.0 0.00 0.00 0.00 71 1017.9
20260905140408 87 258 2.0 2.0 0.00 0.00 0.00 71 1018.0
20260905135906 87 241 0.0 0.0 0.00 0.00 0.00 73 1018.0
20260905135402 86 245 0.0 3.0 0.00 0.00 0.00 74 1018.0
20260905134858 85 250 1.0 2.0 0.00 0.00 0.00 75 1018.1
20260905134356 85 246 2.0 3.0 0.00 0.00 0.00 76 1018.0
20260905133850 84 232 2.0 3.0 0.00 0.00 0.00 76 1018.3
20260905133346 84 239 0.0 1.0 0.00 0.00 0.00 80 1018.2
20260905132845 83 233 0.0 0.0 0.00 0.00 0.00 81 1018.1
20260905132341 82 255 2.0 3.0 0.00 0.00 0.00 79 1018.1
20260905131834 82 255 3.0 4.0 0.00 0.00 0.00 81 1018.4
20260905131330 83 223 1.0 2.0 0.00 0.00 0.00 79 1018.2
20260905130825 82 244 0.0 1.0 0.00 0.00 0.00 82 1018.3
20260905130324 81 245 0.0 2.0 0.00 0.00 0.00 83 1018.4
20260905125820 81 230 0.0 2.0 0.00 0.00 0.00 84 1018.5
20260905125314 81 230 0.0 1.0 0.00 0.00 0.00 83 1018.3
20260905124810 80 230 0.0 0.0 0.00 0.00 0.00 85 1018.2
20260905124307 80 226 0.0 0.0 0.00 0.00 0.00 85 1018.5
20260905123801 80 224 0.0 0.0 0.00 0.00 0.00 86 1018.3
20260905123258 79 224 0.0 1.0 0.00 0.00 0.00 86 1018.0
20260905122752 79 222 0.0 0.0 0.00 0.00 0.00 86 1018.2
20260905122252 79 222 0.0 0.0 0.00 0.00 0.00 88 1018.1
20260905121747 78 221 0.0 0.0 0.00 0.00 0.00 90 1018.3
20260905121244 76 231 0.0 0.0 0.00 0.00 0.00 92 1018.1
20260905120742 76 231 0.0 0.0 0.00 0.00 0.00 93 1018.2
20260905120237 75 231 0.0 0.0 0.00 0.00 0.00 94 1017.9
20260905115732 75 231 0.0 0.0 0.00 0.00 0.00 95 1018.0
20260905115231 74 231 0.0 0.0 0.00 0.00 0.00 96 1017.9
20260905114726 73 231 0.0 0.0 0.00 0.00 0.00 97 1017.8
20260905114224 73 231 0.0 0.0 0.00 0.00 0.00 98 1017.8
20260905113719 73 229 0.0 0.0 0.00 0.00 0.00 99 1017.8
20260905113215 72 229 0.0 0.0 0.00 0.00 0.00 99 1017.6
20260905112715 72 229 0.0 0.0 0.00 0.00 0.00 99 1017.5
20260905112210 72 229 0.0 0.0 0.00 0.00 0.00 99 1017.5
20260905111709 72 229 0.0 0.0 0.00 0.00 0.00 99 1017.5
20260905111209 72 229 0.0 0.0 0.00 0.00 0.00 99 1017.5
20260905110703 72 229 0.0 0.0 0.00 0.00 0.00 99 1017.4
20260905110157 72 229 0.0 0.0 0.00 0.00 0.00 99 1017.3
20260905105653 72 229 0.0 0.0 0.00 0.00 0.00 99 1017.3
20260905105151 72 229 0.0 0.0 0.00 0.00 0.00 99 1017.1
20260905104647 72 229 0.0 0.0 0.00 0.00 0.00 99 1017.5
20260905104143 72 223 0.0 0.0 0.00 0.00 0.00 99 1017.1
20260905103638 72 223 0.0 0.0 0.00 0.00 0.00 99 1017.1
20260905103133 72 223 0.0 0.0 0.00 0.00 0.00 99 1017.0
20260905102629 72 223 0.0 0.0 0.00 0.00 0.00 99 1017.4
20260905102126 72 223 0.0 0.0 0.00 0.00 0.00 99 1017.3
20260905101624 72 223 0.0 0.0 0.00 0.00 0.00 99 1017.1
20260905101122 72 223 0.0 0.0 0.00 0.00 0.00 99 1017.0
20260905100618 72 223 0.0 0.0 0.00 0.00 0.00 99 1017.0
20260905100113 72 223 0.0 0.0 0.00 0.00 0.00 99 1017.1
20260905095607 72 223 0.0 0.0 0.00 0.00 0.00 99 1017.0
20260905095103 72 230 0.0 0.0 0.00 0.00 0.00 99 1017.0
20260905094557 72 230 0.0 0.0 0.00 0.00 0.00 99 1017.0
20260905094056 72 230 0.0 0.0 0.00 0.00 0.00 99 1017.0
20260905093551 72 219 0.0 0.0 0.00 0.00 0.00 99 1016.8
20260905093048 72 219 0.0 0.0 0.00 0.00 0.00 99 1016.8
20260905092547 72 219 0.0 0.0 0.00 0.00 0.00 99 1017.0
20260905092043 72 219 0.0 0.0 0.00 0.00 0.00 99 1016.9
20260905091542 72 219 0.0 0.0 0.00 0.00 0.00 99 1016.9
20260905091036 73 219 0.0 0.0 0.00 0.00 0.00 99 1017.0
20260905090531 73 219 0.0 0.0 0.00 0.00 0.00 99 1016.8
20260905090026 72 218 0.0 0.0 0.00 0.00 0.00 99 1016.9
20260905085524 72 218 0.0 0.0 0.00 0.00 0.00 99 1017.0
20260905085020 73 218 0.0 0.0 0.00 0.00 0.00 99 1017.0
20260905084514 73 218 0.0 0.0 0.00 0.00 0.00 99 1017.1
20260905084009 73 218 0.0 0.0 0.00 0.00 0.00 99 1016.9
20260905083504 73 218 0.0 0.0 0.00 0.00 0.00 99 1017.4
20260905083001 73 218 0.0 0.0 0.00 0.00 0.00 99 1017.0
20260905082456 73 218 0.0 0.0 0.00 0.00 0.00 99 1017.3
20260905081951 73 218 0.0 0.0 0.00 0.00 0.00 98 1017.1
20260905081446 73 218 0.0 0.0 0.00 0.00 0.00 98 1017.0
20260905080945 73 218 0.0 0.0 0.00 0.00 0.00 98 1017.3
20260905080440 73 218 0.0 0.0 0.00 0.00 0.00 98 1017.0
20260905075939 73 218 0.0 0.0 0.00 0.00 0.00 98 1017.0
20260905075434 74 218 0.0 0.0 0.00 0.00 0.00 98 1017.1
20260905074932 73 214 0.0 0.0 0.00 0.00 0.00 98 1017.3
20260905074428 74 214 0.0 0.0 0.00 0.00 0.00 98 1017.4
20260905073924 73 214 0.0 0.0 0.00 0.00 0.00 98 1017.6
20260905073418 73 214 0.0 0.0 0.00 0.00 0.00 97 1017.3
20260905072914 73 214 0.0 0.0 0.00 0.00 0.00 97 1017.3
20260905072409 73 214 0.0 0.0 0.00 0.00 0.00 97 1017.3
20260905071904 73 214 0.0 0.0 0.00 0.00 0.00 97 1017.3
20260905071356 74 214 0.0 0.0 0.00 0.00 0.00 97 1017.1
20260905070855 74 214 0.0 0.0 0.00 0.00 0.00 96 1017.0
20260905070352 74 214 0.0 0.0 0.00 0.00 0.00 96 1017.0
20260905065851 74 214 0.0 0.0 0.00 0.00 0.00 96 1017.0
20260905065349 74 214 0.0 0.0 0.00 0.00 0.00 96 1017.3
20260905064844 74 214 0.0 0.0 0.00 0.00 0.00 96 1017.3
20260905064340 74 214 0.0 0.0 0.00 0.00 0.00 95 1017.1
20260905063838 75 214 0.0 0.0 0.00 0.00 0.00 95 1017.1
20260905063334 75 212 0.0 0.0 0.00 0.00 0.00 95 1017.5
20260905062830 74 213 0.0 0.0 0.00 0.00 0.00 95 1017.1
20260905062324 75 213 0.0 0.0 0.00 0.00 0.00 95 1017.4
20260905061820 75 213 0.0 0.0 0.00 0.00 0.00 95 1017.4
20260905061314 75 213 0.0 0.0 0.00 0.00 0.00 95 1017.1
20260905060808 75 213 0.0 0.0 0.00 0.00 0.00 94 1017.0
20260905060305 75 213 0.0 0.0 0.00 0.00 0.00 94 1017.1
20260905055804 75 213 0.0 0.0 0.00 0.00 0.00 95 1017.3
20260905055259 75 213 0.0 0.0 0.00 0.00 0.00 95 1017.0
20260905054753 75 213 0.0 0.0 0.00 0.00 0.00 94 1017.3
20260905054250 75 212 0.0 0.0 0.00 0.00 0.00 94 1017.4
20260905053749 75 213 0.0 0.0 0.00 0.00 0.00 94 1017.3
20260905053244 76 213 0.0 0.0 0.00 0.00 0.00 94 1017.5
20260905052744 76 213 0.0 0.0 0.00 0.00 0.00 94 1017.4
20260905052239 76 213 0.0 0.0 0.00 0.00 0.00 93 1017.7
20260905051738 77 213 0.0 0.0 0.00 0.00 0.00 93 1017.7
20260905051235 77 213 0.0 0.0 0.00 0.00 0.00 92 1017.7
20260905050732 77 213 0.0 0.0 0.00 0.00 0.00 92 1017.8
20260905050228 77 212 0.0 0.0 0.00 0.00 0.00 91 1017.8
20260905045728 77 214 0.0 1.0 0.00 0.00 0.00 92 1017.7
20260905045223 78 215 0.0 0.0 0.00 0.00 0.00 91 1017.8
20260905044718 78 215 0.0 1.0 0.00 0.00 0.00 91 1017.6
20260905044213 78 215 0.0 0.0 0.00 0.00 0.00 91 1017.8
20260905043712 78 215 0.0 0.0 0.00 0.00 0.00 91 1017.9
20260905043207 78 215 0.0 0.0 0.00 0.00 0.00 91 1017.8
20260905042706 78 215 0.0 0.0 0.00 0.00 0.00 91 1017.9
20260905042201 78 215 0.0 0.0 0.00 0.00 0.00 90 1017.9
20260905041656 78 215 0.0 0.0 0.00 0.00 0.00 90 1018.0
20260905041151 78 215 0.0 0.0 0.00 0.00 0.00 90 1018.0
20260905040646 78 215 0.0 0.0 0.00 0.00 0.00 90 1017.6
20260905040145 78 215 0.0 0.0 0.00 0.00 0.00 89 1017.8
20260905035640 78 215 0.0 0.0 0.00 0.00 0.00 88 1017.9
20260905035137 79 215 0.0 0.0 0.00 0.00 0.00 87 1018.0
20260905034633 79 215 0.0 0.0 0.00 0.00 0.00 85 1018.2
20260905034132 80 215 0.0 0.0 0.00 0.00 0.00 84 1018.2
20260905033631 80 215 0.0 0.0 0.00 0.00 0.00 84 1018.2
20260905033127 80 215 0.0 0.0 0.00 0.00 0.00 84 1018.1
20260905032627 80 215 0.0 0.0 0.00 0.00 0.00 83 1018.3
20260905032126 80 214 0.0 1.0 0.00 0.00 0.00 83 1018.3
20260905031622 80 210 0.0 0.0 0.00 0.00 0.00 81 1018.4
20260905031118 81 210 0.0 0.0 0.00 0.00 0.00 79 1018.3
20260905030618 81 210 0.0 0.0 0.00 0.00 0.00 79 1018.4
20260905030113 82 209 0.0 0.0 0.00 0.00 0.00 77 1018.5
20260905025608 82 218 0.0 0.0 0.00 0.00 0.00 76 1018.4
20260905025104 82 213 0.0 0.0 0.00 0.00 0.00 76 1018.7
20260905024559 82 209 0.0 0.0 0.00 0.00 0.00 76 1018.6
20260905024054 82 210 0.0 0.0 0.00 0.00 0.00 76 1018.6
20260905023549 83 222 0.0 0.0 0.00 0.00 0.00 76 1018.5
20260905023044 83 221 0.0 0.0 0.00 0.00 0.00 76 1018.6
20260905022544 82 198 0.0 1.0 0.00 0.00 0.00 76 1018.5
20260905022039 82 200 0.0 1.0 0.00 0.00 0.00 76 1018.5
20260905021539 82 204 0.0 0.0 0.00 0.00 0.00 77 1018.5
20260905021034 82 220 0.0 0.0 0.00 0.00 0.00 78 1018.8
20260905020533 82 200 0.0 1.0 0.00 0.00 0.00 77 1018.6
20260905020029 82 200 0.0 0.0 0.00 0.00 0.00 78 1018.6
20260905015527 81 201 0.0 0.0 0.00 0.00 0.00 79 1018.4
20260905015022 81 201 0.0 0.0 0.00 0.00 0.00 82 1018.4
20260905014516 82 201 0.0 0.0 0.00 0.00 0.00 83 1018.4
20260905014011 81 201 0.0 0.0 0.00 0.00 0.00 81 1018.5
20260905013502 81 201 0.0 0.0 0.00 0.00 0.00 81 1018.4
20260905012957 81 201 0.0 0.0 0.00 0.00 0.00 82 1018.5
20260905012452 82 201 0.0 0.0 0.00 0.00 0.00 81 1018.3
20260905011949 83 201 0.0 0.0 0.00 0.00 0.00 80 1018.2
20260905011444 83 201 0.0 0.0 0.00 0.00 0.00 79 1018.1
20260905010940 84 201 0.0 0.0 0.00 0.00 0.00 79 1018.0
20260905010435 84 200 0.0 0.0 0.00 0.00 0.00 77 1018.0
20260905005930 84 200 0.0 0.0 0.00 0.00 0.00 77 1018.1
20260905005427 84 200 0.0 0.0 0.00 0.00 0.00 77 1018.2
20260905004927 84 200 0.0 0.0 0.00 0.00 0.00 76 1018.1
20260905004421 84 200 0.0 0.0 0.00 0.00 0.00 74 1018.2
20260905003917 85 200 0.0 0.0 0.00 0.00 0.00 73 1017.9
20260905003412 85 200 0.0 0.0 0.00 0.00 0.00 73 1017.8
20260905002908 86 199 0.0 1.0 0.00 0.00 0.00 72 1017.8
20260905002402 86 190 0.0 0.0 0.00 0.00 0.00 71 1017.9
20260905001856 86 190 0.0 0.0 0.00 0.00 0.00 71 1018.1
20260905001356 87 190 0.0 0.0 0.00 0.00 0.00 68 1017.9
20260905000851 87 190 0.0 0.0 0.00 0.00 0.00 68 1017.7
20260905000348 87 190 0.0 1.0 0.00 0.00 0.00 66 1017.8
20260904235843 87 187 1.0 1.0 0.00 0.00 0.00 67 1017.7
20260904235338 88 185 0.0 0.0 0.00 0.00 0.00 65 1017.5
20260904234832 88 181 0.0 1.0 0.00 0.00 0.00 66 1017.7
20260904234327 90 179 0.0 0.0 0.00 0.00 0.00 63 1017.5
20260904233823 91 178 0.0 0.0 0.00 0.00 0.00 59 1017.6
20260904233318 92 178 0.0 0.0 0.00 0.00 0.00 57 1017.4
20260904232815 92 178 0.0 0.0 0.00 0.00 0.00 57 1017.3
20260904232311 93 178 0.0 0.0 0.00 0.00 0.00 56 1017.5
20260904231807 93 178 0.0 0.0 0.00 0.00 0.00 59 1017.4
20260904231301 93 177 0.0 1.0 0.00 0.00 0.00 57 1017.3
20260904230756 94 199 0.0 0.0 0.00 0.00 0.00 57 1017.4
20260904230249 94 198 0.0 0.0 0.00 0.00 0.00 57 1017.4
20260904225744 93 169 0.0 0.0 0.00 0.00 0.00 57 1017.3
20260904225238 94 186 0.0 0.0 0.00 0.00 0.00 55 1017.0
20260904224737 94 186 0.0 0.0 0.00 0.00 0.00 56 1017.3
20260904224233 94 14 0.0 0.0 0.00 0.00 0.00 56 1017.0
20260904223732 94 14 0.0 0.0 0.00 0.00 0.00 55 1017.1
20260904223227 94 29 2.0 3.0 0.00 0.00 0.00 53 1017.3
20260904222723 94 230 0.0 2.0 0.00 0.00 0.00 54 1017.3
20260904222218 94 50 1.0 3.0 0.00 0.00 0.00 54 1017.1
20260904221718 96 180 0.0 2.0 0.00 0.00 0.00 54 1017.3
20260904221213 96 181 0.0 0.0 0.00 0.00 0.00 51 1017.3
20260904220713 94 180 0.0 3.0 0.00 0.00 0.00 56 1017.3
20260904220208 95 165 0.0 1.0 0.00 0.00 0.00 52 1017.0
20260904215708 95 218 0.0 1.0 0.00 0.00 0.00 53 1017.1
20260904215204 95 220 1.0 4.0 0.00 0.00 0.00 53 1017.1
20260904214658 93 38 2.0 3.0 0.00 0.00 0.00 54 1017.1
20260904214154 94 155 1.0 1.0 0.00 0.00 0.00 53 1017.4
20260904213652 95 168 0.0 1.0 0.00 0.00 0.00 52 1017.5
20260904213149 94 221 0.0 0.0 0.00 0.00 0.00 54 1017.3
20260904212644 94 50 0.0 1.0 0.00 0.00 0.00 53 1017.3
20260904212144 94 30 2.0 4.0 0.00 0.00 0.00 53 1017.4
20260904211638 94 44 1.0 6.0 0.00 0.00 0.00 52 1017.5
20260904211133 95 48 2.0 2.0 0.00 0.00 0.00 52 1017.5
20260904210628 95 171 2.0 2.0 0.00 0.00 0.00 52 1017.5
20260904210123 94 207 0.0 6.0 0.00 0.00 0.00 54 1017.4
20260904205619 95 35 2.0 4.0 0.00 0.00 0.00 52 1017.5
20260904205114 95 102 0.0 6.0 0.00 0.00 0.00 54 1017.6